Wind_Speed
14 13 13 13 12 12 12 12 12 11 11 11 11 11 11 12 13 14 15 16 16 17 18 20 21 23 24 25 26 26 26 28 30 32 33 34 35 36 37 39 40 41
16 15 15 14 14 14 14 14 14 13 13 13 13 13 12 13 15 16 17 18 18 19 20 21 23 24 25 26 27 27 28 29 31 33 34 36 37 38 38 39 41 42
18 17 17 16 16 16 16 16 15 15 15 15 16 15 14 15 17 18 20 21 21 21 22 23 24 25 26 27 28 28 29 31 32 34 36 37 38 39 40 41 42 43
21 20 20 19 19 18 18 17 17 16 16 17 17 18 18 18 20 21 22 23 23 23 24 25 26 27 28 28 29 29 30 32 33 34 36 38 40 41 42 43 44 45
24 23 22 21 21 20 20 19 18 18 18 18 19 21 21 22 22 23 24 25 25 25 25 27 28 29 29 29 30 31 32 33 34 35 37 39 41 42 44 45 46 47
26 25 24 24 23 23 23 21 20 20 20 20 22 24 24 24 24 25 26 26 26 26 27 29 30 31 31 31 32 32 33 34 35 36 37 39 41 43 45 47 47 48
29 28 27 26 26 26 25 23 22 22 23 23 25 26 26 26 26 26 27 27 28 28 29 30 32 33 33 33 34 34 34 35 36 37 38 39 42 44 46 48 49 49
31 31 30 29 29 28 27 25 25 25 26 27 28 28 28 28 27 28 28 28 29 30 31 32 34 35 35 35 36 36 36 36 37 38 40 42 44 45 46 48 49 50
33 33 32 32 31 30 30 29 28 28 29 30 31 30 30 29 29 29 30 30 31 32 33 34 35 36 36 37 37 38 37 37 39 41 42 44 45 46 47 48 50 51
34 34 34 34 33 33 33 32 32 32 32 33 33 32 31 30 30 31 31 32 33 34 36 36 36 37 38 39 39 39 39 39 40 42 43 44 46 47 48 49 50 51
35 35 35 35 35 35 35 34 35 35 35 35 35 33 32 32 32 32 33 34 35 36 38 38 38 39 39 40 41 41 41 41 41 42 43 44 46 49 49 50 50 52
36 36 36 36 36 36 36 36 36 36 36 36 35 34 34 33 33 33 34 36 37 38 39 40 40 40 41 41 42 43 43 43 43 44 44 45 47 49 51 51 51 52
37 37 37 37 38 38 38 38 37 36 36 36 35 35 35 35 34 34 36 37 39 40 40 41 41 42 42 43 44 45 45 45 45 46 47 47 48 50 52 52 52 52
40 39 39 39 40 40 40 39 38 37 37 37 37 37 37 36 36 37 38 39 41 41 41 42 43 44 44 44 46 47 47 47 48 49 49 49 50 52 53 53 53 53
41 41 41 41 42 42 42 41 40 39 39 39 39 39 38 38 38 39 40 41 42 43 43 43 45 46 46 46 48 49 49 49 50 51 52 52 52 53 54 54 55 55
41 42 42 42 43 43 43 43 42 41 41 41 41 41 41 40 41 42 42 43 43 44 45 45 46 47 48 48 49 51 50 51 53 54 55 55 55 55 55 55 55 56
44 44 43 44 44 44 44 44 44 44 44 44 44 44 43 43 44 44 44 44 45 45 47 47 48 49 49 50 52 53 53 53 55 56 57 57 57 57 57 56 56 57
47 47 46 46 46 46 46 46 46 46 47 47 47 46 45 46 46 46 46 46 46 47 48 49 50 51 51 53 54 55 55 55 56 58 59 60 59 59 59 58 57 57
50 50 49 49 49 48 48 48 48 49 50 50 49 48 48 48 48 48 48 48 49 50 51 51 52 53 54 55 57 57 57 57 58 59 61 61 62 62 61 60 59 59
53 53 53 52 51 50 50 50 51 51 52 52 51 51 50 51 50 50 51 51 52 52 53 54 55 57 57 58 59 60 60 59 60 61 62 62 64 64 63 62 61 61
56 57 56 55 54 53 52 52 53 54 54 54 54 54 53 53 53 54 54 54 54 55 55 57 58 59 60 61 61 62 62 61 62 63 63 64 66 66 65 64 63 63
61 61 60 59 58 56 55 55 56 57 57 57 57 57 57 57 57 57 57 57 57 58 58 60 61 62 62 63 63 64 64 63 64 65 65 66 68 68 66 65 64 64
64 64 63 63 62 60 59 59 59 60 60 60 60 60 60 60 60 61 61 61 61 62 62 63 63 64 65 66 66 66 66 66 66 67 67 68 70 70 68 66 65 65
66 66 66 66 65 64 64 63 63 63 63 63 62 62 63 63 64 64 64 65 65 66 66 66 66 67 68 69 69 68 68 68 68 69 70 71 71 71 69 67 66 65
69 69 69 68 68 67 68 68 68 67 66 66 66 66 67 67 67 67 68 68 69 69 69 69 69 69 70 71 72 71 71 70 70 70 71 72 72 71 70 68 66 63
71 71 71 72 71 71 71 72 72 71 70 69 69 69 70 71 71 70 71 71 72 72 72 72 71 71 72 74 74 73 72 70 70 70 72 72 72 71 70 68 64 61
Wind_Direction
229 234 241 250 259 266 271 275 281 289 294 297 300 304 312 320 324 328 331 333 337 338 339 339 338 338 339 340 341 343 346 347 348 349 350 352 352 354 356 356 356 356
233 237 242 249 256 263 268 274 281 286 289 292 294 296 303 312 317 322 325 327 331 332 333 334 333 334 335 336 337 339 342 344 345 345 346 348 349 350 352 353 354 354
236 239 243 246 250 256 263 270 276 282 286 289 291 294 299 307 313 316 319 321 324 327 328 329 329 329 331 333 334 335 337 339 341 342 343 345 346 347 349 350 351 352
238 240 243 246 249 253 259 265 271 276 282 287 291 294 297 302 308 311 313 315 318 321 323 325 325 325 328 331 333 333 334 335 338 339 341 342 344 345 346 347 349 349
242 244 246 248 251 255 258 262 268 273 280 285 290 292 295 299 303 305 307 310 313 317 319 321 321 322 324 327 330 331 331 332 334 337 339 341 342 343 343 344 346 347
244 246 248 250 253 255 258 262 266 271 276 281 285 289 292 296 298 300 302 305 309 312 315 317 317 318 320 323 327 328 328 328 331 334 337 340 341 341 341 342 343 345
247 249 251 252 254 256 259 262 265 269 273 276 280 285 288 292 295 296 298 301 305 308 311 313 314 315 317 320 324 326 326 325 327 332 336 339 339 339 339 340 341 343
249 252 253 255 256 259 261 264 266 268 270 274 278 282 285 289 293 295 296 299 302 305 308 310 311 313 315 317 321 324 325 324 324 327 332 335 336 336 336 337 339 341
251 253 255 257 259 261 264 266 267 268 270 273 278 282 284 287 291 293 295 298 301 303 305 307 309 311 313 315 318 320 323 323 322 323 327 330 332 333 334 336 337 338
252 255 257 258 260 263 264 266 268 269 271 274 278 281 282 286 289 291 294 297 300 302 303 305 307 309 311 313 315 317 320 322 322 324 326 329 329 330 331 333 335 336
256 257 259 261 263 264 266 267 268 269 272 275 278 279 281 285 287 290 294 296 298 299 300 303 306 307 308 311 313 315 317 319 321 323 326 327 328 328 329 331 333 334
257 259 261 262 264 265 267 268 269 270 272 274 276 278 280 283 286 289 292 294 296 297 299 302 304 304 306 309 311 313 315 317 319 321 323 325 326 326 327 329 331 332
258 259 261 262 263 265 267 268 269 270 272 273 275 277 280 282 286 288 290 293 294 296 299 301 302 302 305 307 309 311 312 315 317 318 320 322 323 324 325 327 328 329
259 260 260 261 263 264 266 267 268 269 271 273 275 278 280 283 285 288 290 292 293 295 298 300 301 301 303 306 307 308 311 313 315 316 317 319 320 322 324 324 325 327
260 260 260 261 263 264 266 268 269 270 272 274 276 278 280 283 285 288 290 290 292 294 296 297 299 300 302 304 305 306 309 311 313 314 316 317 318 320 322 322 322 324
260 260 261 262 264 265 267 269 270 272 273 275 276 278 280 283 285 287 288 289 291 292 294 296 297 298 301 303 303 304 307 309 311 313 314 315 316 318 319 320 320 321
260 261 262 263 264 266 268 270 272 273 274 275 277 278 281 282 284 285 286 288 289 290 292 294 296 297 299 301 301 303 306 308 309 311 311 313 314 315 316 317 317 318
262 262 263 264 265 266 268 270 272 274 275 276 277 279 281 281 282 283 285 287 288 290 291 293 295 297 298 299 300 302 304 306 308 308 309 310 312 312 313 314 315 316
263 264 265 265 266 267 268 270 271 273 274 276 278 279 280 281 282 283 285 287 288 289 291 293 294 295 297 298 299 301 303 305 306 306 306 308 309 309 310 311 313 314
263 264 264 265 266 267 269 270 271 272 273 275 277 278 280 281 282 284 285 286 288 289 291 292 293 294 295 296 298 300 301 303 303 303 304 305 306 306 307 309 311 312
262 262 263 264 265 266 268 270 271 272 273 274 275 277 279 280 282 283 284 286 287 289 290 290 290 291 293 294 296 297 299 300 301 301 302 303 303 303 305 307 309 310
261 262 263 264 265 266 267 268 270 271 272 273 275 276 278 280 281 283 284 285 286 287 287 288 289 290 291 292 293 295 296 298 298 298 300 300 300 301 303 305 307 308
261 262 264 265 266 267 268 268 269 270 271 273 275 276 278 280 281 281 282 283 284 285 285 286 287 288 289 290 291 292 294 295 296 296 297 297 297 299 301 303 304 306
261 262 263 265 267 268 269 269 270 270 271 273 274 276 277 277 278 279 280 281 282 283 284 285 286 286 287 288 289 290 292 293 294 294 294 294 294 296 299 300 302 304
263 264 264 266 267 268 269 270 270 271 271 273 274 275 275 276 276 277 278 279 280 281 282 283 284 285 286 286 287 289 290 291 292 292 292 292 293 295 297 298 299 302
266 266 267 268 268 268 269 270 270 271 272 273 273 274 275 275 276 276 277 278 279 279 280 281 282 283 284 285 286 288 289 290 290 290 291 291 292 294 294 295 298 300
Height
10983 10984 10985 10985 10985 10986 10986 10986 10986 10987 10987 10987 10987 10987 10987 10986 10986 10985 10985 10984 10983 10982 10981 10980 10978 10977 10976 10975 10974 10973 10972 10971 10969 10968 10966 10965 10963 10962 10960 10958 10955 10953
10982 10983 10983 10984 10984 10984 10984 10985 10985 10985 10986 10985 10985 10985 10985 10985 10984 10984 10983 10982 10981 10981 10980 10979 10977 10976 10975 10974 10973 10972 10971 10970 10968 10966 10964 10963 10962 10960 10958 10957 10954 10951
10980 10981 10982 10982 10983 10983 10983 10983 10983 10984 10984 10984 10983 10983 10983 10983 10982 10981 10981 10980 10979 10978 10978 10977 10976 10975 10974 10973 10971 10970 10969 10968 10966 10964 10963 10961 10960 10958 10956 10954 10952 10950
10978 10979 10979 10980 10981 10981 10981 10981 10982 10982 10982 10982 10981 10981 10981 10981 10980 10979 10978 10977 10977 10976 10976 10975 10974 10973 10972 10971 10970 10969 10968 10966 10964 10963 10961 10959 10957 10955 10953 10952 10950 10947
10975 10976 10977 10978 10979 10979 10979 10980 10980 10980 10980 10980 10979 10978 10978 10978 10978 10977 10975 10975 10974 10974 10973 10972 10971 10970 10970 10969 10968 10967 10966 10964 10962 10961 10959 10957 10955 10952 10950 10948 10947 10944
10973 10974 10975 10975 10976 10976 10977 10978 10978 10978 10977 10977 10977 10976 10975 10975 10975 10974 10973 10972 10971 10971 10970 10970 10969 10968 10967 10967 10966 10965 10964 10962 10960 10959 10957 10955 10953 10950 10947 10945 10944 10941
10970 10971 10972 10972 10973 10974 10974 10975 10976 10975 10975 10974 10974 10973 10973 10972 10972 10971 10970 10969 10968 10968 10967 10967 10966 10965 10964 10964 10963 10962 10962 10960 10957 10956 10955 10953 10951 10948 10945 10943 10941 10939
10967 10968 10968 10969 10970 10971 10971 10972 10973 10973 10972 10971 10971 10971 10970 10970 10969 10969 10968 10966 10965 10965 10964 10964 10963 10962 10961 10960 10960 10959 10958 10957 10955 10953 10952 10950 10948 10945 10943 10940 10938 10936
10964 10964 10965 10966 10967 10968 10968 10969 10970 10970 10969 10968 10968 10968 10967 10967 10967 10965 10965 10964 10963 10962 10961 10961 10960 10959 10958 10957 10956 10956 10955 10954 10951 10950 10948 10946 10944 10942 10940 10938 10936 10933
10960 10961 10962 10963 10963 10964 10965 10965 10966 10966 10966 10965 10965 10964 10964 10964 10963 10962 10961 10961 10960 10959 10958 10958 10957 10956 10954 10954 10953 10952 10951 10951 10948 10946 10945 10943 10941 10938 10937 10935 10933 10930
10957 10957 10958 10959 10960 10960 10961 10961 10962 10962 10962 10962 10961 10961 10961 10961 10960 10959 10958 10958 10957 10956 10955 10954 10954 10953 10951 10950 10949 10948 10948 10947 10945 10943 10942 10940 10937 10935 10933 10932 10930 10927
10953 10953 10954 10955 10955 10956 10956 10957 10957 10957 10958 10958 10958 10958 10957 10957 10957 10956 10955 10954 10954 10953 10952 10951 10950 10949 10948 10947 10945 10944 10944 10943 10942 10940 10939 10937 10935 10932 10930 10928 10926 10924
10949 10949 10950 10950 10951 10951 10952 10953 10953 10953 10954 10954 10954 10954 10954 10953 10953 10953 10952 10951 10950 10949 10948 10948 10946 10945 10945 10943 10942 10940 10940 10939 10938 10937 10935 10933 10932 10930 10927 10925 10923 10921
10945 10946 10946 10946 10946 10947 10947 10948 10949 10949 10950 10950 10950 10950 10950 10950 10949 10949 10948 10947 10946 10945 10945 10944 10942 10941 10941 10940 10938 10936 10936 10935 10934 10932 10931 10929 10928 10926 10924 10921 10919 10917
10941 10941 10941 10942 10942 10942 10943 10944 10945 10945 10946 10945 10945 10945 10946 10946 10945 10945 10944 10943 10942 10941 10940 10940 10938 10937 10936 10936 10934 10932 10932 10931 10929 10928 10926 10925 10923 10922 10920 10917 10914 10912
10936 10936 10937 10937 10937 10938 10938 10939 10940 10941 10941 10941 10941 10941 10941 10942 10941 10940 10940 10939 10938 10937 10936 10935 10934 10933 10932 10932 10930 10928 10928 10927 10925 10923 10921 10920 10919 10917 10916 10914 10910 10907
10931 10931 10932 10932 10932 10933 10934 10934 10935 10936 10935 10936 10936 10936 10937 10937 10936 10935 10935 10935 10934 10932 10931 10930 10930 10929 10928 10927 10925 10924 10924 10923 10920 10918 10916 10914 10913 10912 10911 10909 10906 10903
10924 10925 10926 10927 10927 10928 10929 10930 10931 10930 10930 10930 10931 10932 10932 10932 10931 10930 10930 10930 10929 10928 10927 10926 10925 10924 10923 10922 10920 10919 10919 10918 10916 10913 10911 10908 10907 10906 10905 10904 10901 10899
10917 10919 10920 10920 10921 10923 10924 10925 10925 10925 10924 10925 10925 10926 10927 10926 10926 10926 10925 10924 10924 10923 10922 10921 10920 10919 10918 10916 10915 10914 10914 10913 10911 10908 10905 10903 10901 10900 10898 10897 10896 10894
10911 10912 10912 10914 10916 10918 10919 10920 10919 10919 10919 10919 10920 10921 10921 10921 10921 10921 10920 10919 10918 10918 10917 10916 10914 10912 10912 10911 10909 10908 10908 10908 10906 10902 10900 10898 10895 10893 10892 10891 10890 10888
10904 10905 10905 10907 10910 10912 10914 10914 10914 10913 10913 10914 10914 10915 10915 10915 10915 10914 10913 10913 10913 10912 10912 10910 10908 10906 10905 10904 10903 10902 10902 10902 10900 10897 10894 10892 10889 10887 10886 10885 10884 10882
10896 10897 10899 10901 10904 10906 10908 10909 10908 10907 10907 10907 10908 10909 10909 10909 10909 10907 10906 10906 10907 10906 10905 10903 10901 10900 10899 10897 10896 10895 10895 10895 10894 10891 10888 10885 10882 10880 10880 10879 10877 10876
10891 10892 10893 10894 10897 10900 10902 10902 10901 10901 10901 10901 10902 10903 10903 10902 10902 10900 10900 10899 10899 10898 10897 10896 10895 10894 10892 10890 10889 10888 10888 10888 10886 10884 10881 10878 10874 10873 10873 10873 10871 10870
10885 10887 10888 10889 10891 10892 10893 10893 10893 10894 10894 10895 10896 10897 10896 10895 10894 10893 10893 10892 10891 10890 10889 10889 10888 10887 10884 10881 10881 10881 10880 10880 10879 10877 10873 10869 10867 10866 10866 10866 10865 10864
10879 10881 10882 10883 10885 10885 10885 10884 10885 10886 10887 10888 10889 10889 10888 10887 10887 10886 10886 10885 10884 10883 10882 10881 10880 10879 10876 10873 10872 10872 10872 10871 10871 10869 10865 10861 10860 10859 10859 10859 10858 10857
10872 10873 10874 10875 10876 10877 10876 10876 10876 10877 10879 10881 10881 10881 10879 10878 10878 10878 10877 10876 10874 10874 10874 10874 10873 10872 10869 10865 10863 10863 10863 10862 10861 10860 10857 10854 10852 10851 10850 10850 10850 10850